����������;��������(kWh)
2016-09-05 00:00;97,45
2016-09-05 00:15;102,4
2016-09-05 00:30;94
2016-09-05 00:45;93,8
2016-09-05 01:00;93,8
2016-09-05 01:15;87,25
2016-09-05 01:30;85,15
2016-09-05 01:45;88,85
2016-09-05 02:00;87,05
2016-09-05 02:15;86,2
2016-09-05 02:30;88,1
2016-09-05 02:45;90,05
2016-09-05 03:00;86,65
2016-09-05 03:15;85,85
2016-09-05 03:30;88,7
2016-09-05 03:45;87,85
2016-09-05 04:00;85,75
2016-09-05 04:15;87,9
2016-09-05 04:30;87,95
2016-09-05 04:45;86,85
2016-09-05 05:00;88,35
2016-09-05 05:15;92,1
2016-09-05 05:30;87,4
2016-09-05 05:45;87,75
2016-09-05 06:00;92,9
2016-09-05 06:15;94,75
2016-09-05 06:30;90,05
2016-09-05 06:45;95,1
2016-09-05 07:00;95,3
2016-09-05 07:15;101,1
2016-09-05 07:30;96,55
2016-09-05 07:45;157,95
2016-09-05 08:00;166,1
2016-09-05 08:15;167,6
2016-09-05 08:30;128,45
2016-09-05 08:45;145,7
2016-09-05 09:00;139,45
2016-09-05 09:15;160,75
2016-09-05 09:30;166,45
2016-09-05 09:45;182,5
2016-09-05 10:00;187,55
2016-09-05 10:15;187,3
2016-09-05 10:30;194,25
2016-09-05 10:45;204,6
2016-09-05 11:00;211,15
2016-09-05 11:15;211,85
2016-09-05 11:30;226,1
2016-09-05 11:45;224,8
2016-09-05 12:00;221,75
2016-09-05 12:15;222,4
2016-09-05 12:30;224,8
2016-09-05 12:45;228,5
2016-09-05 13:00;227,65
2016-09-05 13:15;230,55
2016-09-05 13:30;231,4
2016-09-05 13:45;211,3
2016-09-05 14:00;212,4
2016-09-05 14:15;210,2
2016-09-05 14:30;205,15
2016-09-05 14:45;206,5
2016-09-05 15:00;211,05
2016-09-05 15:15;258,55
2016-09-05 15:30;237,65
2016-09-05 15:45;207,35
2016-09-05 16:00;205,35
2016-09-05 16:15;189,3
2016-09-05 16:30;193,15
2016-09-05 16:45;204,65
2016-09-05 17:00;192,5
2016-09-05 17:15;189,4
2016-09-05 17:30;191,35
2016-09-05 17:45;178,3
2016-09-05 18:00;169,75
2016-09-05 18:15;168,15
2016-09-05 18:30;162,3
2016-09-05 18:45;154,75
2016-09-05 19:00;153,55
2016-09-05 19:15;140,75
2016-09-05 19:30;139,1
2016-09-05 19:45;135,75
2016-09-05 20:00;127,95
2016-09-05 20:15;119,75
2016-09-05 20:30;119,95
2016-09-05 20:45;115,15
2016-09-05 21:00;113
2016-09-05 21:15;111,4
2016-09-05 21:30;111,7
2016-09-05 21:45;103,7
2016-09-05 22:00;99,75
2016-09-05 22:15;103,75
2016-09-05 22:30;103
2016-09-05 22:45;106,35
2016-09-05 23:00;109,45
2016-09-05 23:15;110
2016-09-05 23:30;104,45
2016-09-05 23:45;99,3
2016-09-06 00:00;97,8
2016-09-06 00:15;96,55
2016-09-06 00:30;96,1
2016-09-06 00:45;98,35
2016-09-06 01:00;96,55
2016-09-06 01:15;95,9
2016-09-06 01:30;95,3
2016-09-06 01:45;98,55
2016-09-06 02:00;101,05
2016-09-06 02:15;96,95
2016-09-06 02:30;90,9
2016-09-06 02:45;88,75
2016-09-06 03:00;88,55
2016-09-06 03:15;89,2
2016-09-06 03:30;88,8
2016-09-06 03:45;88,3
2016-09-06 04:00;85,8
2016-09-06 04:15;85,9
2016-09-06 04:30;84,5
2016-09-06 04:45;85,7
2016-09-06 05:00;85,35
2016-09-06 05:15;87,6
2016-09-06 05:30;86,1
2016-09-06 05:45;86,45
2016-09-06 06:00;94,8
2016-09-06 06:15;96,25
2016-09-06 06:30;100,8
2016-09-06 06:45;94,95
2016-09-06 07:00;89,15
2016-09-06 07:15;96,65
2016-09-06 07:30;101,7
2016-09-06 07:45;155,3
2016-09-06 08:00;152,05
2016-09-06 08:15;130,45
2016-09-06 08:30;146,55
2016-09-06 08:45;134,55
2016-09-06 09:00;138,25
2016-09-06 09:15;164,1
2016-09-06 09:30;170,05
2016-09-06 09:45;175,45
2016-09-06 10:00;179
2016-09-06 10:15;202,3
2016-09-06 10:30;188,8
2016-09-06 10:45;199,35
2016-09-06 11:00;224,95
2016-09-06 11:15;215,8
2016-09-06 11:30;216
2016-09-06 11:45;212,3
2016-09-06 12:00;213
2016-09-06 12:15;224,3
2016-09-06 12:30;227,55
2016-09-06 12:45;218,3
2016-09-06 13:00;229,65
2016-09-06 13:15;230,95
2016-09-06 13:30;224,8
2016-09-06 13:45;237,3
2016-09-06 14:00;222,95
2016-09-06 14:15;231,55
2016-09-06 14:30;240,8
2016-09-06 14:45;239,1
2016-09-06 15:00;228
2016-09-06 15:15;219,9
2016-09-06 15:30;219
2016-09-06 15:45;210,2
2016-09-06 16:00;196,7
2016-09-06 16:15;194,9
2016-09-06 16:30;188,25
2016-09-06 16:45;183,15
2016-09-06 17:00;169,4
2016-09-06 17:15;163,6
2016-09-06 17:30;162,65
2016-09-06 17:45;154,65
2016-09-06 18:00;152,5
2016-09-06 18:15;146,7
2016-09-06 18:30;146,1
2016-09-06 18:45;145,9
2016-09-06 19:00;143,55
2016-09-06 19:15;140,35
2016-09-06 19:30;137,8
2016-09-06 19:45;137,8
2016-09-06 20:00;135,8
2016-09-06 20:15;131,9
2016-09-06 20:30;132,55
2016-09-06 20:45;133,95
2016-09-06 21:00;130,95
2016-09-06 21:15;126,55
2016-09-06 21:30;124,35
2016-09-06 21:45;120,7
2016-09-06 22:00;117,85
2016-09-06 22:15;117,3
2016-09-06 22:30;114,25
2016-09-06 22:45;114,4
2016-09-06 23:00;112
2016-09-06 23:15;110,75
2016-09-06 23:30;107,55
2016-09-06 23:45;103,05
2016-09-07 00:00;100,45
2016-09-07 00:15;98,75
2016-09-07 00:30;102,65
2016-09-07 00:45;102,75
2016-09-07 01:00;104,55
2016-09-07 01:15;95,65
2016-09-07 01:30;95,2
2016-09-07 01:45;97,85
2016-09-07 02:00;92,15
2016-09-07 02:15;94,4
2016-09-07 02:30;93
2016-09-07 02:45;93,25
2016-09-07 03:00;92,05
2016-09-07 03:15;92,2
2016-09-07 03:30;92,35
2016-09-07 03:45;89,85
2016-09-07 04:00;91,9
2016-09-07 04:15;92,5
2016-09-07 04:30;90,4
2016-09-07 04:45;88,85
2016-09-07 05:00;92,2
2016-09-07 05:15;91,95
2016-09-07 05:30;89,5
2016-09-07 05:45;91,6
2016-09-07 06:00;100,55
2016-09-07 06:15;99,4
2016-09-07 06:30;103,8
2016-09-07 06:45;101,35
2016-09-07 07:00;103,1
2016-09-07 07:15;113,45
2016-09-07 07:30;115,65
2016-09-07 07:45;159,95
2016-09-07 08:00;123,4
2016-09-07 08:15;134,85
2016-09-07 08:30;131,7
2016-09-07 08:45;132,7
2016-09-07 09:00;139,1
2016-09-07 09:15;158,9
2016-09-07 09:30;164,9
2016-09-07 09:45;165,15
2016-09-07 10:00;174,45
2016-09-07 10:15;189,65
2016-09-07 10:30;192,7
2016-09-07 10:45;205,7
2016-09-07 11:00;213,55
2016-09-07 11:15;213,6
2016-09-07 11:30;281,4
2016-09-07 11:45;272,35
2016-09-07 12:00;249,75
2016-09-07 12:15;241,15
2016-09-07 12:30;248,95
2016-09-07 12:45;239,25
2016-09-07 13:00;243,75
2016-09-07 13:15;236,65
2016-09-07 13:30;286,4
2016-09-07 13:45;284,85
2016-09-07 14:00;243,75
2016-09-07 14:15;237,15
2016-09-07 14:30;237,25
2016-09-07 14:45;221,9
2016-09-07 15:00;217,95
2016-09-07 15:15;213,5
2016-09-07 15:30;213,1
2016-09-07 15:45;217,45
2016-09-07 16:00;216,35
2016-09-07 16:15;204,65
2016-09-07 16:30;206
2016-09-07 16:45;205,85
2016-09-07 17:00;192,65
2016-09-07 17:15;179,05
2016-09-07 17:30;172,95
2016-09-07 17:45;164,75
2016-09-07 18:00;162,65
2016-09-07 18:15;160,2
2016-09-07 18:30;214,1
2016-09-07 18:45;214,65
2016-09-07 19:00;172,65
2016-09-07 19:15;161,1
2016-09-07 19:30;138,95
2016-09-07 19:45;142,4
2016-09-07 20:00;138,5
2016-09-07 20:15;134,7
2016-09-07 20:30;141,4
2016-09-07 20:45;139,6
2016-09-07 21:00;132,2
2016-09-07 21:15;121,95
2016-09-07 21:30;115,6
2016-09-07 21:45;115,2
2016-09-07 22:00;106,05
2016-09-07 22:15;109,5
2016-09-07 22:30;106,7
2016-09-07 22:45;106,75
2016-09-07 23:00;106,75
2016-09-07 23:15;102,5
2016-09-07 23:30;100,55
2016-09-07 23:45;99,75
2016-09-08 00:00;98,8
2016-09-08 00:15;100,8
2016-09-08 00:30;97,15
2016-09-08 00:45;98,1
2016-09-08 01:00;99,05
2016-09-08 01:15;94,25
2016-09-08 01:30;97,5
2016-09-08 01:45;94,5
2016-09-08 02:00;95,75
2016-09-08 02:15;94,25
2016-09-08 02:30;94,5
2016-09-08 02:45;96,55
2016-09-08 03:00;93,55
2016-09-08 03:15;93,85
2016-09-08 03:30;94,2
2016-09-08 03:45;93,6
2016-09-08 04:00;93,5
2016-09-08 04:15;93,5
2016-09-08 04:30;91,7
2016-09-08 04:45;93
2016-09-08 05:00;94,35
2016-09-08 05:15;93,5
2016-09-08 05:30;93,7
2016-09-08 05:45;95,85
2016-09-08 06:00;103,9
2016-09-08 06:15;104,1
2016-09-08 06:30;104,7
2016-09-08 06:45;102
2016-09-08 07:00;97,35
2016-09-08 07:15;107,6
2016-09-08 07:30;117,3
2016-09-08 07:45;178,5
2016-09-08 08:00;190,3
2016-09-08 08:15;183,85
2016-09-08 08:30;171,65
2016-09-08 08:45;176,85
2016-09-08 09:00;168
2016-09-08 09:15;175,2
2016-09-08 09:30;173,05
2016-09-08 09:45;185,55
2016-09-08 10:00;193,7
2016-09-08 10:15;193,95
2016-09-08 10:30;217,95
2016-09-08 10:45;269,75
2016-09-08 11:00;274,45
2016-09-08 11:15;263,2
2016-09-08 11:30;259,95
2016-09-08 11:45;277,15
2016-09-08 12:00;264,15
2016-09-08 12:15;270,55
2016-09-08 12:30;257,3
2016-09-08 12:45;259,5
2016-09-08 13:00;266,7
2016-09-08 13:15;261,45
2016-09-08 13:30;319,65
2016-09-08 13:45;304,4
2016-09-08 14:00;264,5
2016-09-08 14:15;278,8
2016-09-08 14:30;273,9
2016-09-08 14:45;261,4
2016-09-08 15:00;236,6
2016-09-08 15:15;252,6
2016-09-08 15:30;233,2
2016-09-08 15:45;218,6
2016-09-08 16:00;233,15
2016-09-08 16:15;208,5
2016-09-08 16:30;206,5
2016-09-08 16:45;217,25
2016-09-08 17:00;200,95
2016-09-08 17:15;190
2016-09-08 17:30;203,4
2016-09-08 17:45;184,55
2016-09-08 18:00;169,6
2016-09-08 18:15;177,3
2016-09-08 18:30;173,3
2016-09-08 18:45;165,05
2016-09-08 19:00;172
2016-09-08 19:15;160,95
2016-09-08 19:30;152,1
2016-09-08 19:45;152,35
2016-09-08 20:00;148,55
2016-09-08 20:15;142,1
2016-09-08 20:30;135,6
2016-09-08 20:45;141,35
2016-09-08 21:00;140,8
2016-09-08 21:15;130,15
2016-09-08 21:30;136,05
2016-09-08 21:45;136,55
2016-09-08 22:00;120,6
2016-09-08 22:15;121,85
2016-09-08 22:30;122,3
2016-09-08 22:45;113,15
2016-09-08 23:00;113,1
2016-09-08 23:15;120,2
2016-09-08 23:30;107,5
2016-09-08 23:45;107,9
2016-09-09 00:00;112,4
2016-09-09 00:15;104,6
2016-09-09 00:30;106,35
2016-09-09 00:45;97
2016-09-09 01:00;101,35
2016-09-09 01:15;99,45
2016-09-09 01:30;92,35
2016-09-09 01:45;102,4
2016-09-09 02:00;99,95
2016-09-09 02:15;93,75
2016-09-09 02:30;103,4
2016-09-09 02:45;96,85
2016-09-09 03:00;93,6
2016-09-09 03:15;100,95
2016-09-09 03:30;90,95
2016-09-09 03:45;93,85
2016-09-09 04:00;89,3
2016-09-09 04:15;88,45
2016-09-09 04:30;91,45
2016-09-09 04:45;88,4
2016-09-09 05:00;91,3
2016-09-09 05:15;90,75
2016-09-09 05:30;90,45
2016-09-09 05:45;92,25
2016-09-09 06:00;94,55
2016-09-09 06:15;98,65
2016-09-09 06:30;102,35
2016-09-09 06:45;101,4
2016-09-09 07:00;99
2016-09-09 07:15;104
2016-09-09 07:30;111,2
2016-09-09 07:45;116,75
2016-09-09 08:00;122,7
2016-09-09 08:15;129,05
2016-09-09 08:30;136
2016-09-09 08:45;137,9
2016-09-09 09:00;143,35
2016-09-09 09:15;149,3
2016-09-09 09:30;156,35
2016-09-09 09:45;166,4
2016-09-09 10:00;182,75
2016-09-09 10:15;186,45
2016-09-09 10:30;191,7
2016-09-09 10:45;206,4
2016-09-09 11:00;269,2
2016-09-09 11:15;271,7
2016-09-09 11:30;255,5
2016-09-09 11:45;239,8
2016-09-09 12:00;241,5
2016-09-09 12:15;245,9
2016-09-09 12:30;241,4
2016-09-09 12:45;240,1
2016-09-09 13:00;237,7
2016-09-09 13:15;232,7
2016-09-09 13:30;232,2
2016-09-09 13:45;239,9
2016-09-09 14:00;234,85
2016-09-09 14:15;251,25
2016-09-09 14:30;291,55
2016-09-09 14:45;277,65
2016-09-09 15:00;256,1
2016-09-09 15:15;227,9
2016-09-09 15:30;221,75
2016-09-09 15:45;210,35
2016-09-09 16:00;198,8
2016-09-09 16:15;193,35
2016-09-09 16:30;188,1
2016-09-09 16:45;189,35
2016-09-09 17:00;184,2
2016-09-09 17:15;188,15
2016-09-09 17:30;172,55
2016-09-09 17:45;167,4
2016-09-09 18:00;164,45
2016-09-09 18:15;158,65
2016-09-09 18:30;154,3
2016-09-09 18:45;153,4
2016-09-09 19:00;149,35
2016-09-09 19:15;141,65
2016-09-09 19:30;142,5
2016-09-09 19:45;135,95
2016-09-09 20:00;132,4
2016-09-09 20:15;122,45
2016-09-09 20:30;122,15
2016-09-09 20:45;120,05
2016-09-09 21:00;118
2016-09-09 21:15;114,2
2016-09-09 21:30;113,1
2016-09-09 21:45;106,9
2016-09-09 22:00;105,35
2016-09-09 22:15;109,9
2016-09-09 22:30;112,35
2016-09-09 22:45;113,7
2016-09-09 23:00;108,75
2016-09-09 23:15;105,35
2016-09-09 23:30;101,95
2016-09-09 23:45;102,05
2016-09-10 00:00;101,2
2016-09-10 00:15;100,95
2016-09-10 00:30;99,65
2016-09-10 00:45;100,1
2016-09-10 01:00;97,75
2016-09-10 01:15;90,85
2016-09-10 01:30;88,2
2016-09-10 01:45;89,6
2016-09-10 02:00;87,7
2016-09-10 02:15;86,85
2016-09-10 02:30;87,55
2016-09-10 02:45;89,6
2016-09-10 03:00;87,95
2016-09-10 03:15;88,55
2016-09-10 03:30;88,9
2016-09-10 03:45;88,45
2016-09-10 04:00;86,8
2016-09-10 04:15;86,75
2016-09-10 04:30;87,95
2016-09-10 04:45;86,4
2016-09-10 05:00;86,2
2016-09-10 05:15;87
2016-09-10 05:30;85,6
2016-09-10 05:45;86,35
2016-09-10 06:00;86,2
2016-09-10 06:15;90,9
2016-09-10 06:30;89,8
2016-09-10 06:45;90,9
2016-09-10 07:00;87,95
2016-09-10 07:15;89,55
2016-09-10 07:30;88,9
2016-09-10 07:45;145,6
2016-09-10 08:00;144,4
2016-09-10 08:15;107,5
2016-09-10 08:30;102,1
2016-09-10 08:45;96,4
2016-09-10 09:00;102,95
2016-09-10 09:15;102,35
2016-09-10 09:30;104,1
2016-09-10 09:45;113,9
2016-09-10 10:00;102,9
2016-09-10 10:15;99,4
2016-09-10 10:30;113,4
2016-09-10 10:45;114,55
2016-09-10 11:00;116,65
2016-09-10 11:15;109,5
2016-09-10 11:30;109,9
2016-09-10 11:45;110,1
2016-09-10 12:00;113,1
2016-09-10 12:15;107,75
2016-09-10 12:30;103,95
2016-09-10 12:45;104,9
2016-09-10 13:00;106,85
2016-09-10 13:15;103,1
2016-09-10 13:30;111,95
2016-09-10 13:45;125,2
2016-09-10 14:00;137,35
2016-09-10 14:15;123,15
2016-09-10 14:30;140,6
2016-09-10 14:45;139,6
2016-09-10 15:00;133,1
2016-09-10 15:15;130,8
2016-09-10 15:30;119,1
2016-09-10 15:45;121,9
2016-09-10 16:00;120,7
2016-09-10 16:15;127,55
2016-09-10 16:30;117,2
2016-09-10 16:45;120,7
2016-09-10 17:00;115,95
2016-09-10 17:15;111,55
2016-09-10 17:30;107,2
2016-09-10 17:45;103,35
2016-09-10 18:00;100,55
2016-09-10 18:15;102,1
2016-09-10 18:30;100,75
2016-09-10 18:45;102,95
2016-09-10 19:00;99,3
2016-09-10 19:15;97,15
2016-09-10 19:30;99,7
2016-09-10 19:45;101
2016-09-10 20:00;108,7
2016-09-10 20:15;101,9
2016-09-10 20:30;99,35
2016-09-10 20:45;103,25
2016-09-10 21:00;101,95
2016-09-10 21:15;98,45
2016-09-10 21:30;100,65
2016-09-10 21:45;96,4
2016-09-10 22:00;91,05
2016-09-10 22:15;95,45
2016-09-10 22:30;98,85
2016-09-10 22:45;95,5
2016-09-10 23:00;98,95
2016-09-10 23:15;103
2016-09-10 23:30;99,9
2016-09-10 23:45;96,5
2016-09-11 00:00;91,65
2016-09-11 00:15;91,25
2016-09-11 00:30;91,4
2016-09-11 00:45;91,35
2016-09-11 01:00;90,6
2016-09-11 01:15;88,7
2016-09-11 01:30;89,45
2016-09-11 01:45;87,75
2016-09-11 02:00;87,55
2016-09-11 02:15;88,1
2016-09-11 02:30;89,85
2016-09-11 02:45;88,05
2016-09-11 03:00;87,6
2016-09-11 03:15;89,05
2016-09-11 03:30;88,3
2016-09-11 03:45;88,35
2016-09-11 04:00;87,1
2016-09-11 04:15;87,75
2016-09-11 04:30;86,15
2016-09-11 04:45;86,45
2016-09-11 05:00;85,8
2016-09-11 05:15;86,1
2016-09-11 05:30;86,25
2016-09-11 05:45;85,85
2016-09-11 06:00;90
2016-09-11 06:15;88,6
2016-09-11 06:30;95,2
2016-09-11 06:45;95,35
2016-09-11 07:00;91,55
2016-09-11 07:15;92,6
2016-09-11 07:30;91,05
2016-09-11 07:45;90,35
2016-09-11 08:00;87,65
2016-09-11 08:15;89,85
2016-09-11 08:30;89,75
2016-09-11 08:45;88,35
2016-09-11 09:00;88,9
2016-09-11 09:15;87,15
2016-09-11 09:30;89,85
2016-09-11 09:45;88,2
2016-09-11 10:00;90,15
2016-09-11 10:15;91,5
2016-09-11 10:30;95,25
2016-09-11 10:45;92,4
2016-09-11 11:00;96,6
2016-09-11 11:15;101,15
2016-09-11 11:30;94,7
2016-09-11 11:45;95,75
2016-09-11 12:00;100,2
2016-09-11 12:15;102,3
2016-09-11 12:30;94,6
2016-09-11 12:45;100,3
2016-09-11 13:00;98,3
2016-09-11 13:15;103,1
2016-09-11 13:30;96,35
2016-09-11 13:45;97,95
2016-09-11 14:00;96,05
2016-09-11 14:15;98,5
2016-09-11 14:30;102,75
2016-09-11 14:45;102,15
2016-09-11 15:00;99,35
2016-09-11 15:15;99
2016-09-11 15:30;98,55
2016-09-11 15:45;99,05
2016-09-11 16:00;100,1
2016-09-11 16:15;97,85
2016-09-11 16:30;97,25
2016-09-11 16:45;107,1
2016-09-11 17:00;106,6
2016-09-11 17:15;104,6
2016-09-11 17:30;105,75
2016-09-11 17:45;108,15
2016-09-11 18:00;108,55
2016-09-11 18:15;110,6
2016-09-11 18:30;104,85
2016-09-11 18:45;103,9
2016-09-11 19:00;104,3
2016-09-11 19:15;105,7
2016-09-11 19:30;104,05
2016-09-11 19:45;99,65
2016-09-11 20:00;104,1
2016-09-11 20:15;108,85
2016-09-11 20:30;106,25
2016-09-11 20:45;103,45
2016-09-11 21:00;104,8
2016-09-11 21:15;103,3
2016-09-11 21:30;100,05
2016-09-11 21:45;98,9
2016-09-11 22:00;94,85
2016-09-11 22:15;94,55
2016-09-11 22:30;96
2016-09-11 22:45;96,15
2016-09-11 23:00;96,35
2016-09-11 23:15;97,25
2016-09-11 23:30;100,85
2016-09-11 23:45;100,65

